Location: Poughquag
(41.6090°N, 73.6820°W)
Time: 23:17:37
(UTC-05:00)

Tiangong 2 - Visible Passes

Search period start: 18 January 2019 00:00
Search period end: 28 January 2019 00:00
Orbit: 380 x 392 km, 42.8° (Epoch: 18 January)

Date Brightness Start Highest point End Pass type
(mag) Time Alt. Az. Time Alt. Az. Time Alt. Az.
18 Jan 3.9 04:49:38 19° ESE 04:49:38 19° ESE 04:50:53 10° E visible
18 Jan 1.0 06:21:55 14° W 06:24:37 83° N 06:27:50 10° ENE visible
19 Jan 1.3 05:25:51 70° ESE 05:25:51 70° ESE 05:28:50 10° E visible
20 Jan 4.7 04:29:42 10° E 04:29:42 10° E 04:29:46 10° E visible
20 Jan 1.1 06:01:57 29° W 06:03:25 70° N 06:06:38 10° E visible
21 Jan 2.9 05:05:44 31° ENE 05:05:44 31° ENE 05:07:35 10° ENE visible
21 Jan 1.1 06:38:04 10° W 06:41:16 76° N 06:44:29 10° E visible
22 Jan 1.1 05:41:43 56° NW 05:42:13 68° N 05:45:24 10° E visible
23 Jan 4.0 04:45:26 17° ENE 04:45:26 17° ENE 04:46:20 10° E visible
23 Jan 1.1 06:17:41 17° WNW 06:20:01 85° SSW 06:23:13 10° ESE visible
24 Jan 1.5 05:21:23 62° ENE 05:21:23 62° ENE 05:24:10 10° E visible
25 Jan 1.3 05:57:21 30° W 05:58:41 59° SSW 06:01:50 10° ESE visible
26 Jan 3.0 05:01:05 30° ESE 05:01:05 30° ESE 05:02:52 10° ESE visible
26 Jan 2.8 06:33:36 10° W 06:36:12 23° SSW 06:38:48 10° SSE visible
27 Jan 1.9 05:37:07 36° SSW 05:37:17 36° SSW 05:40:15 10° SE visible
